Saint Paul Island, AK

5:30 PM AKDT on October 20, 2017 (GMT -0800)
Saint Paul Island

Weather History for PASN - August, 2014

Change the Weather History Date:

Monday, August 11, 2014

  Actual Average Record
Temperature  
Mean Temperature 52 °F 49 °F  
Max Temperature 53 °F 52 °F 60 °F (1950)
Min Temperature 51 °F 46 °F 37 °F (1969)
Degree Days  
Heating Degree Days 13 16  
Month to date heating degree days 120 177  
Since 1 June heating degree days 1194 1407  
Since 1 July heating degree days 566 729  
Cooling Degree Days 0 0  
Month to date cooling degree days 0 0  
Year to date cooling degree days 0 0  
Since 1 June cooling degree days 0 0  
Growing Degree Days 2 (Base 50)    
Moisture  
Dew Point 51 °F    
Average Humidity 0    
Maximum Humidity 0    
Minimum Humidity 0    
Precipitation  
Precipitation 0.21 in 0.10 in 0.50 in (1979)
Month to date precipitation 1.61 0.98  
Year to date precipitation 10.84 10.34  
Snow  
Snow 0.00 in 0.00 in - ()
Month to date snowfall 0.0 0.0  
Since 1 June snowfall 0.0 T  
Since 1 July snowfall 0.0 0.0  
Snow Depth 0.00 in    
Sea Level Pressure  
Sea Level Pressure 29.25 in    
Wind  
Wind Speed 12 mph (East)    
Max Wind Speed 18 mph    
Max Gust Speed 25 mph    
Visibility 5 miles    
Events Rain    
T = Trace of Precipitation, MM = Missing Value Source: NWS Daily Summary

Daily Weather History Graph

Daily Weather History Graph

Search for Another Location

Airport or City:

Trip Planner

Search our weather history database for the weather conditions in past years. The results will help you decide how hot, cold, wet, or windy it might be!

Date:

Astronomy

Aug. 11, 2014 Rise Set
Actual Time 7:39 AM AKDT 11:10 PM AKDT
Civil Twilight 6:52 AM AKDT 11:57 PM AKDT
Nautical Twilight 5:46 AM AKDT 1:02 AM AKDT
Astronomical Twilight 3:58 AM AKDT 2:53 AM AKDT
Moon 11:12 PM AKDT (8/11) 9:28 AM AKDT (8/11)
Length of Visible Light 17h 04m
Length of Day
15h 31m
Full, 98% of the Moon is Illuminated
Aug 11
Full
Aug 17
Last Quarter
Aug 25
New
Sep 2
First Quarter
Sep 8
Full

Hourly Weather History & Observations

Time (AKDT) Temp. Dew Point Humidity Pressure Visibility Wind Dir Wind Speed Gust Speed Precip Events Conditions
12:04 AM 51.1 °F 50.0 °F 96% 29.44 in 8.0 mi SE 12.7 mph - 0.01 in Rain Light Rain
12:41 AM 51.1 °F 50.0 °F 96% 29.44 in 6.0 mi SE 16.1 mph - 0.03 in Rain Light Rain
12:53 AM 51.1 °F 50.0 °F 96% 29.44 in 7.0 mi SSE 13.8 mph - 0.05 in Rain Light Rain
1:48 AM 51.8 °F 50.0 °F 94% 29.42 in 7.0 mi SE 16.1 mph - 0.04 in Rain Light Rain
1:53 AM 51.1 °F 50.0 °F 96% 29.42 in 7.0 mi SE 16.1 mph - 0.05 in Rain Light Rain
2:27 AM 51.1 °F 50.0 °F 96% 29.40 in 6.0 mi SE 11.5 mph - 0.03 in Rain Light Rain
2:41 AM 51.1 °F 50.0 °F 96% 29.40 in 7.0 mi SE 11.5 mph - 0.04 in Rain Light Rain
2:53 AM 51.1 °F 50.0 °F 96% 29.39 in 7.0 mi SE 13.8 mph - 0.05 in Rain Light Rain
3:08 AM 51.1 °F 48.9 °F 92% 29.39 in 9.0 mi SE 11.5 mph - 0.00 in Rain Light Rain
3:53 AM 51.1 °F 48.9 °F 92% 29.37 in 10.0 mi ESE 10.4 mph - 0.01 in Rain Light Rain
4:53 AM 51.1 °F 48.9 °F 92% 29.35 in 10.0 mi ESE 11.5 mph - 0.00 in   Overcast
5:00 AM 51.1 °F 48.9 °F 92% 29.35 in 10.0 mi ESE 11.5 mph - N/A   Overcast
5:33 AM 51.1 °F 48.9 °F 92% 29.35 in 10.0 mi ESE 11.5 mph - N/A   Overcast
5:53 AM 51.1 °F 50.0 °F 96% 29.34 in 10.0 mi ESE 11.5 mph - N/A   Overcast
6:53 AM 51.1 °F 50.0 °F 96% 29.31 in 10.0 mi East 10.4 mph - N/A   Overcast
6:59 AM 51.1 °F 50.0 °F 96% 29.31 in 10.0 mi East 11.5 mph - N/A   Overcast
7:13 AM 51.1 °F 50.0 °F 96% 29.31 in 10.0 mi East 11.5 mph - N/A   Overcast
7:53 AM 52.0 °F 50.0 °F 93% 29.30 in 10.0 mi East 11.5 mph - N/A   Overcast
8:12 AM 52.0 °F 51.1 °F 97% 29.29 in 2.5 mi ESE 11.5 mph 19.6 mph 0.00 in Rain Light Rain
8:20 AM 52.0 °F 51.1 °F 97% 29.29 in 1.8 mi ESE 12.7 mph - 0.00 in Rain Light Rain
8:24 AM 51.1 °F 51.1 °F 100% 29.29 in 3.0 mi ESE 10.4 mph - 0.00 in Rain Light Rain
8:53 AM 52.0 °F 50.0 °F 93% 29.29 in 10.0 mi ESE 15.0 mph - 0.00 in   Mostly Cloudy
9:10 AM 52.0 °F 50.0 °F 93% 29.28 in 10.0 mi ESE 12.7 mph - N/A   Mostly Cloudy
9:17 AM 52.0 °F 50.0 °F 93% 29.28 in 10.0 mi ESE 13.8 mph - N/A   Mostly Cloudy
9:47 AM 51.8 °F 51.8 °F 100% 29.28 in 2.0 mi ESE 12.7 mph - 0.00 in Rain Light Rain
9:53 AM 52.0 °F 51.1 °F 97% 29.28 in 2.0 mi ESE 12.7 mph - 0.01 in Rain Light Rain
10:09 AM 52.0 °F 51.1 °F 97% 29.27 in 10.0 mi ESE 11.5 mph - 0.00 in   Mostly Cloudy
10:53 AM 53.1 °F 51.1 °F 93% 29.26 in 6.0 mi ESE 12.7 mph - 0.00 in   Mostly Cloudy
11:15 AM 53.1 °F 52.0 °F 96% 29.25 in 7.0 mi East 12.7 mph - N/A   Mostly Cloudy
11:53 AM 53.1 °F 51.1 °F 93% 29.25 in 10.0 mi East 11.5 mph - N/A   Mostly Cloudy
12:12 PM 53.1 °F 51.1 °F 93% 29.25 in 10.0 mi East 15.0 mph - N/A   Overcast
12:43 PM 53.1 °F 51.1 °F 93% 29.24 in 5.0 mi East 13.8 mph - N/A   Overcast
12:53 PM 53.1 °F 51.1 °F 93% 29.24 in 9.0 mi East 13.8 mph - N/A   Overcast
1:53 PM 53.1 °F 51.1 °F 93% 29.23 in 10.0 mi East 12.7 mph - N/A   Overcast
2:16 PM 52.0 °F 51.1 °F 97% 29.22 in 9.0 mi East 15.0 mph - N/A   Overcast
2:53 PM 52.0 °F 51.1 °F 97% 29.22 in 2.0 mi ESE 17.3 mph - 0.00 in   Overcast
2:55 PM 52.0 °F 51.1 °F 97% 29.22 in 1.8 mi East 17.3 mph - N/A   Overcast
3:03 PM 52.0 °F 51.1 °F 97% 29.22 in 3.0 mi East 15.0 mph 24.2 mph N/A   Overcast
3:10 PM 53.1 °F 51.1 °F 93% 29.22 in 1.8 mi ESE 17.3 mph - 0.00 in Rain Light Rain
3:19 PM 52.0 °F 51.1 °F 97% 29.22 in 0.8 mi ESE 17.3 mph - 0.00 in Rain Light Rain
3:31 PM 53.1 °F 52.0 °F 96% 29.22 in 1.5 mi ESE 17.3 mph - 0.00 in Rain Light Rain
3:53 PM 52.0 °F 51.1 °F 97% 29.21 in 1.0 mi ESE 15.0 mph - 0.00 in Rain Light Rain
4:20 PM 52.0 °F 51.1 °F 97% 29.21 in 2.0 mi East 15.0 mph - 0.02 in Rain Light Rain
4:39 PM 53.1 °F 51.1 °F 93% 29.21 in 3.0 mi East 12.7 mph - 0.03 in Rain Light Rain
4:53 PM 53.1 °F 51.1 °F 93% 29.21 in 2.5 mi East 12.7 mph - 0.04 in Rain Light Rain
5:08 PM 53.1 °F 51.1 °F 93% 29.20 in 1.8 mi ESE 13.8 mph - 0.01 in Rain Light Rain
5:40 PM 52.0 °F 51.1 °F 97% 29.20 in 1.5 mi East 16.1 mph - 0.03 in Rain Light Rain
5:53 PM 53.1 °F 51.1 °F 93% 29.20 in 1.8 mi East 12.7 mph - 0.03 in Rain Light Rain
6:07 PM 52.0 °F 52.0 °F 100% 29.19 in 1.8 mi East 15.0 mph - 0.00 in Rain Light Rain
6:16 PM 52.0 °F 52.0 °F 100% 29.19 in 2.5 mi East 13.8 mph - 0.00 in Rain Light Rain
6:35 PM 52.0 °F 52.0 °F 100% 29.19 in 3.0 mi East 12.7 mph - 0.01 in Rain Light Rain
6:53 PM 52.0 °F 51.1 °F 97% 29.19 in 2.5 mi East 13.8 mph - 0.01 in   Overcast
7:03 PM 52.0 °F 52.0 °F 100% 29.19 in 1.2 mi East 12.7 mph - N/A   Overcast
7:37 PM 53.1 °F 52.0 °F 96% 29.18 in 0.8 mi East 15.0 mph - 0.00 in Rain Light Rain
7:53 PM 53.1 °F 52.0 °F 96% 29.18 in 1.0 mi East 10.4 mph - 0.00 in Rain Light Rain
8:20 PM 53.6 °F 51.8 °F 94% 29.18 in 0.8 mi East 11.5 mph - N/A Rain Light Rain
8:28 PM 53.1 °F 52.0 °F 96% 29.17 in 1.2 mi ENE 11.5 mph - 0.00 in Rain Light Rain
8:53 PM 53.1 °F 52.0 °F 96% 29.17 in 1.5 mi ENE 12.7 mph - 0.00 in Rain Light Rain
9:04 PM 53.1 °F 52.0 °F 96% 29.17 in 2.0 mi ENE 12.7 mph - 0.01 in Rain Light Rain
9:24 PM 53.1 °F 52.0 °F 96% 29.17 in 4.0 mi ENE 12.7 mph - 0.01 in Rain Light Rain
9:38 PM 53.1 °F 51.1 °F 93% 29.17 in 1.8 mi ENE 13.8 mph - 0.01 in Rain Light Rain
9:50 PM 53.6 °F 50.0 °F 88% 29.17 in 3.0 mi ENE 12.7 mph - 0.01 in   Overcast
9:51 PM 51.8 °F 48.2 °F 88% 29.17 in 2.5 mi ENE 12.7 mph - 0.01 in   Overcast
9:53 PM 52.0 °F 50.0 °F 93% 29.17 in 2.0 mi ENE 12.7 mph - 0.01 in   Overcast
10:00 PM 52.0 °F 52.0 °F 100% 29.17 in 1.5 mi ENE 11.5 mph - N/A   Overcast
10:03 PM 52.0 °F 52.0 °F 100% 29.17 in 2.5 mi ENE 11.5 mph - N/A   Overcast
10:11 PM 52.0 °F 52.0 °F 100% 29.17 in 7.0 mi ENE 10.4 mph - 0.00 in Rain Light Rain
10:21 PM 52.0 °F 52.0 °F 100% 29.17 in 1.8 mi ENE 11.5 mph - 0.00 in   Overcast
10:32 PM 52.0 °F 52.0 °F 100% 29.17 in 3.0 mi ENE 11.5 mph - 0.00 in Rain Light Rain
10:36 PM 52.0 °F 52.0 °F 100% 29.18 in 1.8 mi ENE 11.5 mph - 0.00 in Rain Light Rain
10:53 PM 52.0 °F 52.0 °F 100% 29.18 in 1.5 mi ENE 10.4 mph - 0.00 in Rain Light Rain
11:29 PM 52.0 °F 50.0 °F 93% 29.18 in 2.0 mi ENE 10.4 mph - 0.00 in Rain Light Rain
11:43 PM 52.0 °F 50.0 °F 93% 29.18 in 1.8 mi ENE 10.4 mph - 0.00 in   Overcast
11:53 PM 52.0 °F 51.1 °F 97% 29.18 in 2.0 mi ENE 10.4 mph - 0.00 in   Overcast